Location: Freistadt
(48.5112°N, 14.5013°E)
Time: 21:44:36
(UTC+02:00)

VELOX 1 - Pass Details

Date: 26 February 2024
Orbit: 607 x 620 km, 98.4° (Epoch: 13 April)

Event Time Altitude Azimuth Distance (km) Brightness Sun altitude
Rises 21:06:59 0° 2° (N) 2,883 ? -34.0°
Reaches altitude 10° 21:09:33 10° 347° (NNW) 1,972 ? -34.4°
Enters shadow 21:11:27 19° 324° (NW) 1,487 ? -34.7°
